This is the latest recevied weather packets stored in our database for station/object FREPRT-WX. If no packets are shown the sender has not sent any weather packets the latest 10 day(s).
| Time | Temp. | Humidity | Pressure | Rain* | Wind** | Luminosity | Snow |
|---|---|---|---|---|---|---|---|
| 1777790738 | 1.67° C | 60% | 985.4 hPa | 0 mm | - | - | - |
| 1777789853 | 2.22° C | 64% | 985.4 hPa | 0 mm | - | - | - |
| 1777788938 | 2.22° C | 64% | 985.4 hPa | 0 mm | - | - | - |
| 1777788076 | 2.22° C | 64% | 985.4 hPa | 0 mm | - | - | - |
| 1777787138 | 2.22° C | 63% | 985.9 hPa | 0 mm | - | - | - |
| 1777785337 | 2.22° C | 63% | 986 hPa | 0 mm | - | - | - |
| 1777784466 | 2.22° C | 63% | 986 hPa | 0 mm | - | - | - |
| 1777783537 | 2.22° C | 64% | 986.4 hPa | 0 mm | - | - | - |
| 1777782657 | 2.22° C | 65% | 985.8 hPa | 0 mm | - | - | - |
| 1777781738 | 2.22° C | 65% | 985.8 hPa | 0 mm | - | - | - |
| 1777780868 | 2.78° C | 65% | 985.8 hPa | 0 mm | - | - | - |
| 1777779937 | 2.78° C | 62% | 986.7 hPa | 0 mm | - | - | - |
| 1777779059 | 2.78° C | 64% | 986.9 hPa | 0 mm | - | - | - |
| 1777778138 | 3.33° C | 64% | 986.9 hPa | 0 mm | - | - | - |
| 1777777267 | 3.33° C | 64% | 986.9 hPa | 0 mm | - | - | - |
| 1777776337 | 3.33° C | 61% | 987.6 hPa | 0 mm | - | - | - |
| 1777775457 | 3.33° C | 64% | 987.4 hPa | 0 mm | - | - | - |
| 1777774538 | 3.89° C | 64% | 987.4 hPa | 0 mm | - | - | - |
| 1777773666 | 3.89° C | 64% | 987.4 hPa | 0 mm | - | - | - |
| 1777772737 | 3.89° C | 60% | 986.8 hPa | 0 mm | - | - | - |
| 1777771856 | 4.44° C | 60% | 986.8 hPa | 0 mm | - | - | - |
| 1777770937 | 4.44° C | 60% | 986.8 hPa | 0 mm | - | - | - |
| 1777770064 | 5° C | 60% | 986.8 hPa | 0 mm | - | - | - |
| 1777769137 | 5° C | 52% | 987.6 hPa | 0 mm | - | - | - |
| 1777768251 | 5.56° C | 52% | 987.9 hPa | 0 mm | - | - | - |
* Rain latest hour (hover to see other rain measurements)
** Current wind speed in m/s (hover to see current wind gust speed)